TimeEDT,TemperatureF,Dew PointF,Humidity,Sea Level PressureIn,VisibilityMPH,Wind Direction,Wind SpeedMPH,Gust SpeedMPH,PrecipitationIn,Events,Conditions,WindDirDegrees,DateUTC
12:52 AM,30.9,10.0,42,29.83,10.0,WNW,15.0,23.0,N/A,,Clear,290,2013-04-02 04:52:00
1:52 AM,30.0,10.0,43,29.83,10.0,WNW,12.7,20.7,N/A,,Clear,290,2013-04-02 05:52:00
2:52 AM,28.9,9.0,43,29.83,10.0,West,12.7,18.4,N/A,,Clear,280,2013-04-02 06:52:00
3:52 AM,28.0,10.9,49,29.83,10.0,WNW,11.5,-,N/A,,Clear,290,2013-04-02 07:52:00
4:52 AM,27.0,12.0,53,29.84,10.0,West,3.5,-,N/A,,Clear,260,2013-04-02 08:52:00
5:52 AM,26.1,12.9,58,29.86,10.0,West,5.8,-,N/A,,Clear,280,2013-04-02 09:52:00
6:52 AM,27.0,15.1,61,29.87,10.0,West,6.9,-,N/A,,Scattered Clouds,260,2013-04-02 10:52:00
7:52 AM,28.0,14.0,56,29.89,10.0,West,6.9,16.1,N/A,,Clear,260,2013-04-02 11:52:00
8:52 AM,28.9,12.0,49,29.90,10.0,WNW,11.5,18.4,N/A,,Scattered Clouds,290,2013-04-02 12:52:00
9:52 AM,28.9,12.9,51,29.90,10.0,West,15.0,25.3,N/A,,Overcast,280,2013-04-02 13:52:00
10:52 AM,30.9,14.0,50,29.90,10.0,West,16.1,20.7,0.00,,Mostly Cloudy,270,2013-04-02 14:52:00
11:52 AM,32.0,12.9,45,29.89,5.0,West,12.7,35.7,0.00,Snow,Light Snow,280,2013-04-02 15:52:00
12:52 PM,35.1,9.0,34,29.87,10.0,West,16.1,32.2,0.00,,Overcast,270,2013-04-02 16:52:00
1:52 PM,35.1,10.0,35,29.86,10.0,West,21.9,33.4,N/A,,Mostly Cloudy,270,2013-04-02 17:52:00
2:52 PM,34.0,7.0,32,29.86,10.0,WNW,19.6,33.4,N/A,,Mostly Cloudy,290,2013-04-02 18:52:00
3:52 PM,35.1,7.0,31,29.86,10.0,West,17.3,28.8,N/A,,Overcast,280,2013-04-02 19:52:00
4:52 PM,34.0,8.1,34,29.87,10.0,West,16.1,38.0,N/A,,Overcast,280,2013-04-02 20:52:00
5:52 PM,33.1,7.0,34,29.90,10.0,WNW,17.3,26.5,N/A,,Mostly Cloudy,300,2013-04-02 21:52:00
6:52 PM,33.1,8.1,35,29.93,10.0,WNW,19.6,35.7,N/A,,Overcast,290,2013-04-02 22:52:00
7:52 PM,32.0,12.0,44,29.94,10.0,West,13.8,23.0,N/A,,Overcast,260,2013-04-02 23:52:00
8:52 PM,32.0,12.0,44,29.94,10.0,West,15.0,26.5,N/A,,Mostly Cloudy,260,2013-04-03 00:52:00
9:52 PM,32.0,12.0,44,29.95,10.0,West,13.8,31.1,N/A,,Overcast,270,2013-04-03 01:52:00
10:52 PM,32.0,12.9,45,29.95,10.0,West,19.6,26.5,N/A,,Overcast,280,2013-04-03 02:52:00
11:52 PM,30.0,14.0,51,29.95,10.0,West,18.4,32.2,0.00,,Scattered Clouds,280,2013-04-03 03:52:00